This demonstration page uses our WeatherBlox Daily Observations layout. Learn more.

Left ArrowRight Arrow

Hourly Observations for December 8, 2020

Temp ( °F °C ) Dew Point ( °F °C ) Humidity (%) Winds ( mph kmh ) Pressure ( in mb ) Visibility ( mi km ) Precip ( " mm )
1:54 am 01:54 Clear 20 -6.7 14 -10 78 78 Calm 30.15 1021 10 16.0934 0 0
2:54 am 02:54 Clear 20 -6.7 14 -10 78 78 NNW 5 7 30.16 1021 10 16.0934 0 0
3:54 am 03:54 Clear 21 -6.1 16 -8.9 81 81 Calm 30.16 1021 10 16.0934 0 0
4:54 am 04:54 Clear 20 -6.7 15 -9.4 81 81 Calm 30.15 1021 10 16.0934 0 0
5:54 am 05:54 Clear 22 -5.6 15 -9.4 75 75 Calm 30.16 1021 10 16.0934 0 0
6:54 am 06:54 Clear 22 -5.6 15 -9.4 75 75 Calm 30.18 1022 10 16.0934 0 0
7:54 am 07:54 Sunny 20 -6.7 15 -9.4 81 81 SSW 6 9 30.17 1022 10 16.0934 0 0
8:54 am 08:54 Sunny 30 -1.1 22 -5.6 72 72 Calm 30.16 1021 10 16.0934 0 0
9:54 am 09:54 Sunny 39 3.9 26 -3.3 60 60 Calm 30.16 1021 10 16.0934 0 0
10:54 am 10:54 Sunny 47 8.3 27 -2.8 46 46 SW 7 11 30.15 1021 10 16.0934 0 0
11:54 am 11:54 Sunny 53 11.7 27 -2.8 37 37 WSW 10 17 30.1 1019 10 16.0934 0 0
12:54 pm 12:54 Sunny 57 13.9 27 -2.8 32 32 SW 10 17 30.06 1018 10 16.0934 0 0
1:54 pm 13:54 Sunny 62 16.7 25 -3.9 24 24 WSW 10 17 30.02 1017 10 16.0934 0 0
2:54 pm 14:54 Sunny 63 17.2 24 -4.4 23 23 W 9 15 30.01 1016 10 16.0934 0 0
3:54 pm 15:54 Sunny 62 16.7 23 -5 22 22 W 7 11 30 1016 10 16.0934 0 0
4:54 pm 16:54 Sunny 59 15 24 -4.4 26 26 W 5 7 30.02 1017 10 16.0934 0 0
5:54 pm 17:54 Clear 51 10.6 24 -4.4 35 35 Calm 30.03 1017 10 16.0934 0 0
6:54 pm 18:54 Clear 51 10.6 25 -3.9 36 36 Calm 30.02 1017 10 16.0934 0 0
7:54 pm 19:54 Clear 46 7.8 25 -3.9 44 44 Calm 30.03 1017 10 16.0934 0 0
8:54 pm 20:54 Clear 49 9.4 24 -4.4 38 38 SW 6 9 30.01 1016 10 16.0934 0 0
9:54 pm 21:54 Clear 47 8.3 23 -5 39 39 WSW 5 7 29.99 1016 10 16.0934 0 0
10:54 pm 22:54 Clear 39 3.9 23 -5 53 53 Calm 29.99 1016 10 16.0934 0 0
11:54 pm 23:54 Clear 33 0.6 23 -5 66 66 S 6 9 29.98 1015 10 16.0934 0 0

Powered by AerisWeather